Location: Unspecified
(0.0000°N, 0.0000°E)
Time: 12:05:17
(UTC+00:00)

Tiros 1 despin weight - All Passes

Search period start: 15 May 2025 00:00
Search period end: 25 May 2025 00:00
Orbit: 563 x 602 km, 48.2° (Epoch: 14 May)

Date Brightness Start Highest point End Pass type
(mag) Time Alt. Az. Time Alt. Az. Time Alt. Az.
15 May - 01:14:39 10° SW 01:18:57 74° SE 01:23:18 10° NE night (unlit)
15 May - 13:17:12 10° NW 13:21:32 75° SW 13:25:51 10° SE daylight
15 May - 23:42:11 10° SE 23:43:15 11° SE 23:44:19 10° ESE night (unlit)
16 May - 01:19:40 10° SW 01:23:52 50° NW 01:28:05 10° NNE night (unlit)
16 May - 11:43:08 10° NNE 11:45:50 16° NE 11:48:31 10° E daylight
16 May - 13:22:29 10° WNW 13:26:27 34° SW 13:30:22 10° SSE daylight
16 May - 23:44:51 10° S 23:48:12 22° SE 23:51:35 10° ENE night (unlit)
17 May - 01:25:17 10° WSW 01:28:47 24° NW 01:32:18 10° N night (unlit)
17 May - 11:46:51 10° NNW 11:50:46 32° NE 11:54:40 10° ESE daylight
17 May - 13:28:31 10° W 13:31:21 17° SW 13:34:11 10° S daylight
17 May - 23:48:59 10° SSW 23:53:06 46° SE 23:57:15 10° NE night (unlit)
18 May - 01:32:08 10° WNW 01:33:44 12° NW 01:35:21 10° NNW night (unlit)
18 May - 11:51:18 10° NNW 11:55:40 69° NE 11:59:59 10° SE daylight
18 May - 23:53:42 10° SW 23:57:59 80° NW 00:02:19 10° NE night (unlit)
19 May - 10:19:04 10° NE 10:19:54 10° NE 10:20:43 10° ENE daylight
19 May - 11:56:15 10° NW 12:00:33 54° SW 12:04:48 10° SSE daylight
19 May - 22:19:54 10° SSE 22:22:18 15° SE 22:24:40 10° E night (unlit)
19 May - 23:58:55 10° WSW 00:02:52 36° NW 00:06:50 10° NNE night (unlit)
20 May - 10:21:28 10° N 10:24:50 21° NE 10:28:11 10° E daylight
20 May - 12:01:47 10° WNW 12:05:25 25° SW 12:09:03 10° S daylight
20 May - 22:23:27 10° S 22:27:11 29° SE 22:30:57 10° ENE night (unlit)
21 May - 00:04:51 10° W 00:07:46 18° NW 00:10:43 10° N night (unlit)
21 May - 10:25:32 10° NNW 10:29:43 43° NE 10:33:53 10° ESE daylight
21 May - 12:08:21 10° WSW 12:10:20 13° SW 12:12:17 10° SSW daylight
21 May - 22:27:50 10° SSW 22:32:04 64° SE 22:36:18 10° NE night (unlit)
22 May - 10:30:10 10° NW 10:34:35 86° SW 10:38:58 10° SE daylight
22 May - 22:32:43 10° SW 22:36:54 57° NW 22:41:07 10° NNE night (unlit)
23 May - 08:56:24 10° NNE 08:58:48 14° NE 09:01:13 10° E daylight
23 May - 10:35:18 10° WNW 10:39:26 39° SW 10:43:32 10° SSE daylight
23 May - 20:58:08 10° S 21:01:12 19° SE 21:04:17 10° E night (unlit)
23 May - 22:38:10 10° WSW 22:41:46 26° NW 22:45:24 10° N night (unlit)
24 May - 08:59:53 10° N 09:03:42 28° NE 09:07:31 10° ESE daylight
24 May - 10:41:06 10° W 10:44:18 19° SW 10:47:29 10° S daylight
24 May - 21:02:05 10° SSW 21:06:04 39° SE 21:10:04 10° ENE night (unlit)
24 May - 22:44:37 10° WNW 22:46:40 13° NW 22:48:42 10° NNW night (unlit)
